Regional Weather Roundup
Issued by NWS

Home | Current Version | Previous Version | Text Only | Print | Product List | Glossary Off
Versions: 1 2 3 4 5 6 7 8 9 10 11 12 13 14 15 16 17 18 19 20 21 22 23 24 25 26 27 28 29 30 31 32 33 34 35 36 37 38 39 40 41 42 43 44 45 46 47 48 49 50

000
ASUS45 KTFX 222210
RWRMT
MONTANA REGIONAL WEATHER ROUNDUP
NATIONAL WEATHER SERVICE GREAT FALLS MT
400 PM MDT FRI MAY 22 2015

NOTE: "FAIR" INDICATES FEW OR NO CLOUDS BELOW 12000 FEET WITH NO
SIGNIFICANT WEATHER AND/OR OBSTRUCTIONS TO VISIBILITY.

MTZ001>007-043-222300-
WEST OF THE DIVIDE

CITY           SKY/WX    TMP DP  RH WIND       PRES   REMARKS
KALISPELL      CLEAR     78  29  16 VRB5G17   29.84F
MISSOULA       MOSUNNY   77  40  26 MISG      29.83F
BUTTE          PTSUNNY   60  40  47 E13       29.95F
MULLAN PASS    MOSUNNY   64  31  28 VRB5      29.96F
DEER LODGE       N/A     61  43  51 W10       29.94S
EUREKA           N/A     81  32  17 SW9       29.84F
HAMILTON         N/A     72  37  28 S2        29.83F
LIBBY            N/A     79  27  14 NE5       29.81F
RONAN            N/A     76  38  25 NW13      29.90F
$$

MTZ008-052>055-222300-
SOUTHWEST MONTANA

CITY           SKY/WX    TMP DP  RH WIND       PRES   REMARKS
BOZEMAN        HVY RAIN  55  47  74 NE12      29.90R
DILLON         CLOUDY    60  41  49 S8        29.90F
W YELLOWSTONE  CLOUDY    55  36  47 CALM      29.94F
THREE FORKS      N/A     64  64 100 E13       29.90R
TWIN BRIDGES     N/A     66  39  37 N20       29.89F
$$

MTZ009-010-012-014-046-048-049-054-222300-
EAST SLOPES AND CENTRAL MONTANA

CITY           SKY/WX    TMP DP  RH WIND       PRES   REMARKS
CUT BANK       PTSUNNY   68  36  30 E13G23    29.96F
GREAT FALLS    SUNNY     70  38  31 NE9       29.92F
MALMSTROM AFB  SUNNY     69  40  34 NE7       29.92F
HELENA         PTSUNNY   71  41  33 N12       29.89F
CONRAD           N/A     70  44  38 NE8       29.98S
$$

MTZ011-013-016-021-045-047-050-051-222300-
NORTH CENTRAL MONTANA

CITY           SKY/WX    TMP DP  RH WIND       PRES   REMARKS
HAVRE          SUNNY     73  41  31 E18G24    29.93F
LEWISTOWN      PTSUNNY   63  43  48 E15       29.95S
N BAR RANCH    MOCLDY    64  43  45 E12       29.98S
CHINOOK          N/A     73  45  35 E14G20    29.94F
FORT BENTON      N/A     72  45  37 NE10G17   29.91F
$$

MTZ017>020-022>027-061-062-222300-
NORTHEAST MONTANA

CITY           SKY/WX    TMP DP  RH WIND       PRES   REMARKS
GLASGOW        MOSUNNY   73  40  30 S16G26    29.97F
JORDAN           N/A     71  42  35 SE20G28   29.95S
SIDNEY         MOSUNNY   75  34  22 SE15G26   30.02S
WOLF POINT     CLOUDY    74  40  29 SE12G22   29.99F
MALTA            N/A     75  45  34 E14       29.92F
PLENTYWOOD       N/A     75  30  19 SE17G24   30.04F
POPLAR           N/A     75  27  16 E18G25    30.00F
$$

MTZ028>42-056>058-222300-
SOUTHCENTRAL AND SOUTHEAST MONTANA

CITY           SKY/WX    TMP DP  RH WIND       PRES   REMARKS
BAKER          CLOUDY    69  39  33 SE22      30.03F
BILLINGS       MOSUNNY   69  43  38 NE14G20   29.90F
LIVINGSTON     MOSUNNY   64  43  46 SE8       29.89F
MILES CITY     CLOUDY    70  43  37 SE17G28   29.96F
BIG TIMBER       N/A     64  45  48 E10       29.91F
EKALAKA          N/A     62  40  44 E20       30.01F
FORSYTH          N/A     66  45  45 SE17G23   29.94F
LAUREL           N/A     69  44  40 E6        29.89F
ROUNDUP          N/A     68  43  40 NE8       29.84F
$$

REGIONAL REPORTS...DAKOTAS

CITY           SKY/WX    TMP DP  RH WIND       PRES   REMARKS
WILLISTON      SUNNY     76  32  20 SE12G24   30.04F
MINOT          SUNNY     76  30  18 VRB5      30.08F
DICKINSON      SUNNY     71  32  23 SE25G38   30.05S
BEACH          FAIR      70  34  26 SE23      30.04S
CROSBY         FAIR      75  32  20 SE13G20   30.07S
WATFORD CITY   FAIR      73  32  21 SE20G25   30.03F
BISMARCK       MOSUNNY   76  37  24 SE14      30.10F
GRAND FORKS    MOSUNNY   77  39  25 S12       30.12F
FARGO          SUNNY     75  43  31 S13       30.14F
BUFFALO SD       N/A     66  43  43 S22G32    29.98F
RAPID CITY     CLOUDY    60  41  49 S16       30.07S
$$

REGIONAL REPORTS...WYOMING/IDAHO/WASHINGTON

CITY           SKY/WX    TMP DP  RH WIND       PRES   REMARKS
GILLETTE       CLOUDY    54  43  66 SE17      30.01F
SHERIDAN       CLOUDY    62  43  49 SE21G35   29.93S
BUFFALO WY       N/A     52  44  74 SE16G23   30.00R
CODY           CLOUDY    48  45  87 W10       29.94F
YELLOWSTONE LA   N/A     52  33  48 E5        29.99F
IDAHO FALLS    CLOUDY    64  47  53 W10       29.86F
SALMON         CLOUDY    64  45  48 N7        29.84S
BOISE          PTSUNNY   70  47  43 NE6       29.82F
SPOKANE        PTSUNNY   80  45  28 NW8G16    29.80F
$$

REGIONAL REPORTS...ALBERTA

CITY           SKY/WX    TMP DP  RH WIND       PRES   REMARKS
EDMONTON       SUNNY     77  28  16 S6        29.98S
CALGARY        MOSUNNY   72  28  20 VRB6      29.99F
LETHBRIDGE     MOSUNNY   73  36  25 SE6G21    29.96S
MEDICINE HAT   MOSUNNY   77  30  18 SE10G18   29.94F
$$

REGIONAL REPORTS...SASKATCHEWAN

CITY           SKY/WX    TMP DP  RH WIND       PRES   REMARKS
SWIFT CURRENT  SUNNY     73  28  19 SE15G28   30.02F
REGINA         MOSUNNY   73  36  25 SE9       30.05F
SASKATOON      MOSUNNY   79  30  17 SW6G18    30.04S
$$


USA.gov is the U.S. government's official web portal to all federal, state and local government web resources and services.